TimeCDT,TemperatureF,Dew PointF,Humidity,Sea Level PressureIn,VisibilityMPH,Wind Direction,Wind SpeedMPH,Gust SpeedMPH,PrecipitationIn,Events,Conditions,WindDirDegrees,DateUTC
12:53 AM,61.0,50.0,67,29.95,10.0,SE,21.9,-,0.00,Rain,Light Rain,140,2011-10-06 05:53:00
1:53 AM,61.0,53.1,75,29.94,10.0,SE,17.3,-,0.00,,Scattered Clouds,140,2011-10-06 06:53:00
2:53 AM,60.1,53.1,78,29.93,10.0,SE,19.6,-,0.00,Rain,Light Rain,130,2011-10-06 07:53:00
3:53 AM,62.1,52.0,70,29.91,10.0,SE,16.1,-,0.00,,Mostly Cloudy,130,2011-10-06 08:53:00
4:53 AM,63.0,51.1,65,29.89,10.0,SSE,17.3,-,N/A,,Mostly Cloudy,150,2011-10-06 09:53:00
5:53 AM,66.0,50.0,56,29.88,10.0,South,20.7,-,N/A,,Mostly Cloudy,170,2011-10-06 10:53:00
7:53 AM,64.9,53.1,65,29.90,10.0,SSE,24.2,-,N/A,,Clear,160,2011-10-06 12:53:00
8:53 AM,66.9,55.9,68,29.91,10.0,South,25.3,33.4,N/A,,Clear,170,2011-10-06 13:53:00
10:53 AM,73.9,60.1,62,29.91,10.0,South,29.9,41.4,N/A,,Clear,170,2011-10-06 15:53:00
11:35 AM,75.2,60.8,61,29.96,10.0,South,26.5,36.8,N/A,,Mostly Cloudy,180,2011-10-06 16:35:00
11:53 AM,73.9,61.0,64,29.90,10.0,South,28.8,36.8,N/A,,Mostly Cloudy,180,2011-10-06 16:53:00
12:03 PM,75.2,60.8,61,29.96,10.0,South,31.1,36.8,N/A,,Overcast,170,2011-10-06 17:03:00
12:53 PM,75.9,61.0,60,29.88,10.0,South,28.8,36.8,N/A,,Overcast,170,2011-10-06 17:53:00
1:53 PM,77.0,61.0,58,29.86,10.0,SSE,32.2,41.4,N/A,,Overcast,160,2011-10-06 18:53:00
2:53 PM,78.1,60.1,54,29.84,10.0,SSE,26.5,39.1,N/A,,Overcast,160,2011-10-06 19:53:00
3:53 PM,79.0,60.1,52,29.82,10.0,SSE,31.1,36.8,N/A,,Overcast,160,2011-10-06 20:53:00
4:53 PM,80.1,59.0,48,29.81,10.0,South,29.9,39.1,N/A,,Overcast,170,2011-10-06 21:53:00
5:53 PM,80.1,59.0,48,29.78,10.0,SSE,31.1,36.8,N/A,,Clear,160,2011-10-06 22:53:00
6:53 PM,78.1,59.0,52,29.78,10.0,SSE,31.1,41.4,N/A,,Partly Cloudy,150,2011-10-06 23:53:00
7:53 PM,75.9,59.0,56,29.80,10.0,SSE,27.6,34.5,N/A,,Clear,150,2011-10-07 00:53:00
8:53 PM,75.0,57.9,55,29.80,10.0,SSE,24.2,33.4,N/A,,Clear,150,2011-10-07 01:53:00
9:53 PM,73.9,59.0,59,29.81,10.0,SSE,26.5,33.4,N/A,,Clear,150,2011-10-07 02:53:00
10:53 PM,75.0,59.0,57,29.82,10.0,SSE,27.6,35.7,N/A,,Clear,150,2011-10-07 03:53:00
11:53 PM,73.9,60.1,62,29.83,10.0,SSE,28.8,36.8,N/A,,Clear,160,2011-10-07 04:53:00